Date String (YYYY-MM-DD hh:mm:ss) UTC,Instrument flags,absolute air pressure of the measurement (hPa),sample flow rate (lpm),inlet stack bypass flow (lpm),air temperature of the measurement (°C),ambient temperature measured by the external sensor (°C),aerosol sample conditioner tube jacket temperature (°C),OPC LED temperature (°C),internal box temperature (°C),relative humidity of the measurement (%),span deviation,mass concentration of particles derived from Lorenz-Mie calculation of OPC scattering (μg/m³),mass concentration of particles derived from Lorenz-Mie calculation of OPC scattering (μg/m³),mass concentration of particles derived from Lorenz-Mie calculation of OPC scattering (μg/m³)
DateTimeUTC,F1_M11,P_M11,Q1_M11,Q2_M11,T1_M11,T2_M11,T3_M11,T4_M11,T5_M11,U1_M11,ZSPAN_M11,X2_M11,X0_M11,X1_M11
2023-10-07 05:00:00,SystemResetWarning,0840.1,5.00,000.00,027.5,025.9,000.0,036.0,029.1,18.1,0000.0,0006.57,0012.66,0005.77
2023-10-07 05:01:00,SystemResetWarning,0840.1,5.00,000.00,027.5,025.9,000.0,036.0,029.1,18.0,0000.0,0006.57,0013.24,0005.76
2023-10-07 05:02:00,SystemResetWarning,0840.1,5.00,000.00,027.5,025.9,000.0,035.9,029.1,18.0,0000.0,0006.53,0013.46,0005.74
2023-10-07 05:03:00,SystemResetWarning,0840.1,5.00,000.00,027.4,025.9,000.0,035.9,029.1,18.1,0000.0,0006.50,0014.21,0005.71
2023-10-07 05:04:00,SystemResetWarning,0840.1,5.00,000.00,027.4,025.9,000.0,035.9,029.1,18.1,0000.2,0006.48,0014.26,0005.70
2023-10-07 05:05:00,SystemResetWarning,0840.1,5.00,000.00,027.4,025.9,000.0,035.9,029.1,18.1,0000.4,0006.42,0013.84,0005.69
2023-10-07 05:06:00,SystemResetWarning,0840.0,4.99,000.00,027.4,025.9,000.0,035.9,029.1,18.1,0001.5,0006.39,0013.71,0005.69
2023-10-07 05:07:00,SystemResetWarning,0840.0,5.00,000.00,027.4,025.9,000.0,035.9,029.1,18.2,0001.9,0006.38,0013.60,0005.69
2023-10-07 05:08:00,SystemResetWarning,0840.0,5.00,000.00,027.4,025.9,000.0,035.9,029.1,18.2,0001.9,0006.37,0013.66,0005.68
2023-10-07 05:09:00,SystemResetWarning,0840.0,5.00,000.00,027.4,025.9,000.0,035.9,029.1,18.2,0001.9,0006.38,0014.36,0005.68
2023-10-07 05:10:00,SystemResetWarning,0840.0,5.00,000.00,027.4,025.8,000.0,035.9,029.0,18.2,0001.7,0006.40,0015.25,0005.70
2023-10-07 05:11:00,SystemResetWarning,0839.9,5.00,000.00,027.4,025.8,000.0,035.9,029.1,18.2,0001.4,0006.39,0015.53,0005.70
2023-10-07 05:12:00,SystemResetWarning,0839.9,5.00,000.00,027.4,025.8,000.0,035.9,029.0,18.2,0001.5,0006.39,0014.87,0005.70
2023-10-07 05:13:00,SystemResetWarning,0839.9,5.00,000.00,027.4,025.8,000.0,035.9,029.0,18.1,0001.2,0006.39,0014.46,0005.70
2023-10-07 05:14:00,SystemResetWarning,0839.9,5.00,000.00,027.4,025.8,000.0,035.9,029.0,18.1,0001.0,0006.40,0013.61,0005.72
2023-10-07 05:15:00,SystemResetWarning,0839.9,5.00,000.00,027.4,025.8,000.0,035.9,029.0,18.2,0000.9,0006.42,0013.92,0005.72
2023-10-07 05:16:00,SystemResetWarning,0839.9,5.01,000.00,027.4,025.8,000.0,035.9,029.0,18.2,0000.3,0006.44,0013.75,0005.73
2023-10-07 05:17:00,SystemResetWarning,0839.9,5.00,000.00,027.4,025.8,000.0,035.9,029.0,18.2,0000.2,0006.44,0013.61,0005.73
2023-10-07 05:18:00,SystemResetWarning,0839.9,5.01,000.00,027.4,025.8,000.0,035.9,029.0,18.2,0000.9,0006.40,0013.69,0005.72
2023-10-07 05:19:00,SystemResetWarning,0839.9,5.00,000.00,027.4,025.8,000.0,035.9,029.0,18.2,0001.3,0006.40,0013.57,0005.72
2023-10-07 05:20:00,SystemResetWarning,0839.9,4.99,000.00,027.4,025.8,000.0,035.9,029.0,18.2,0001.3,0006.42,0012.92,0005.72
2023-10-07 05:21:00,SystemResetWarning,0840.0,4.99,000.00,027.3,025.7,000.0,035.9,029.0,18.2,0001.2,0006.42,0011.97,0005.71
2023-10-07 05:22:00,SystemResetWarning,0839.9,4.99,000.00,027.3,025.7,000.0,035.9,029.0,18.2,0001.7,0006.44,0010.98,0005.71
2023-10-07 05:23:00,SystemResetWarning,0839.9,5.01,000.00,027.3,025.7,000.0,035.9,029.0,18.2,0001.8,0006.46,0011.04,0005.70
2023-10-07 05:24:00,SystemResetWarning,0839.8,5.00,000.00,027.3,025.7,000.0,035.8,029.0,18.2,0001.6,0006.47,0011.21,0005.70
2023-10-07 05:25:00,SystemResetWarning,0839.8,5.00,000.00,027.3,025.7,000.0,035.8,029.0,18.2,0001.6,0006.44,0010.94,0005.69
2023-10-07 05:26:00,SystemResetWarning,0839.8,5.01,000.00,027.3,025.7,000.0,035.8,028.9,18.2,0001.9,0006.39,0010.58,0005.69
2023-10-07 05:27:00,SystemResetWarning,0839.8,5.01,000.00,027.3,025.7,000.0,035.8,028.9,18.2,0002.1,0006.38,0010.57,0005.68
2023-10-07 05:28:00,SystemResetWarning,0839.8,5.00,000.00,027.3,025.7,000.0,035.8,028.9,18.1,0002.4,0006.37,0010.83,0005.69
2023-10-07 05:29:00,SystemResetWarning,0839.7,5.01,000.00,027.3,025.6,000.0,035.8,028.9,18.1,0002.2,0006.38,0011.22,0005.69
2023-10-07 05:30:00,SystemResetWarning,0839.7,5.01,000.00,027.3,025.6,000.0,035.8,028.9,18.1,0001.7,0006.39,0012.22,0005.68
2023-10-07 05:31:00,SystemResetWarning,0839.8,4.99,000.00,027.3,025.6,000.0,035.8,028.9,18.1,0001.6,0006.36,0012.24,0005.67
2023-10-07 05:32:00,SystemResetWarning,0839.8,4.99,000.00,027.3,025.6,000.0,035.8,028.9,18.0,0001.6,0006.34,0012.26,0005.67
2023-10-07 05:33:00,SystemResetWarning,0839.8,5.00,000.00,027.3,025.6,000.0,035.8,028.9,18.0,0001.6,0006.29,0013.06,0005.66
2023-10-07 05:34:00,SystemResetWarning,0839.8,5.00,000.00,027.2,025.6,000.0,035.8,028.9,18.0,0001.5,0006.27,0013.20,0005.66
2023-10-07 05:35:00,SystemResetWarning,0839.8,5.00,000.00,027.2,025.6,000.0,035.8,028.9,17.9,0001.4,0006.26,0013.11,0005.67
2023-10-07 05:36:00,SystemResetWarning,0839.8,5.00,000.00,027.2,025.6,000.0,035.8,028.9,17.9,0001.0,0006.28,0013.59,0005.66
2023-10-07 05:37:00,SystemResetWarning,0839.7,5.00,000.00,027.2,025.6,000.0,035.7,028.9,17.8,0001.1,0006.31,0013.82,0005.65
2023-10-07 05:38:00,SystemResetWarning,0839.7,5.00,000.00,027.2,025.6,000.0,035.7,028.8,17.8,0001.5,0006.33,0014.29,0005.65
2023-10-07 05:39:00,SystemResetWarning,0839.7,5.00,000.00,027.2,025.6,000.0,035.8,028.8,17.8,0001.4,0006.33,0014.45,0005.65
2023-10-07 05:40:00,SystemResetWarning,0839.7,5.00,000.00,027.2,025.6,000.0,035.7,028.8,17.7,0001.0,0006.31,0014.11,0005.64
2023-10-07 05:41:00,SystemResetWarning,0839.6,5.00,000.00,027.2,025.6,000.0,035.8,028.8,17.7,0001.1,0006.30,0013.25,0005.64
2023-10-07 05:42:00,SystemResetWarning,0839.7,5.00,000.00,027.2,025.6,000.0,035.7,028.8,17.8,0001.7,0006.30,0012.67,0005.66
2023-10-07 05:43:00,SystemResetWarning,0839.7,4.99,000.00,027.2,025.6,000.0,035.7,028.8,17.8,0001.8,0006.31,0013.35,0005.68
2023-10-07 05:44:00,SystemResetWarning,0839.7,4.99,000.00,027.2,025.6,000.0,035.7,028.8,17.8,0001.7,0006.35,0013.01,0005.70
2023-10-07 05:45:00,SystemResetWarning,0839.7,5.00,000.00,027.2,025.5,000.0,035.7,028.8,17.9,0001.5,0006.43,0013.36,0005.71
2023-10-07 05:46:00,SystemResetWarning,0839.7,5.01,000.00,027.2,025.5,000.0,035.7,028.8,17.8,0001.2,0006.45,0013.68,0005.71
2023-10-07 05:47:00,SystemResetWarning,0839.6,5.01,000.00,027.2,025.5,000.0,035.7,028.8,17.8,0001.7,0006.44,0013.49,0005.72
2023-10-07 05:48:00,SystemResetWarning,0839.6,5.01,000.00,027.1,025.5,000.0,035.7,028.8,17.8,0001.9,0006.46,0013.39,0005.72
2023-10-07 05:49:00,SystemResetWarning,0839.5,5.00,000.00,027.1,025.5,000.0,035.7,028.8,17.8,0000.9,0006.47,0013.46,0005.73
2023-10-07 05:50:00,SystemResetWarning,0839.5,5.00,000.00,027.1,025.5,000.0,035.7,028.8,17.8,0000.6,0006.52,0013.64,0005.75
2023-10-07 05:51:00,SystemResetWarning,0839.5,4.99,000.00,027.1,025.5,000.0,035.7,028.8,17.8,0001.6,0006.57,0013.85,0005.77
2023-10-07 05:52:00,SystemResetWarning,0839.5,5.00,000.00,027.1,025.5,000.0,035.6,028.8,17.8,0000.9,0006.59,0013.89,0005.77
2023-10-07 05:53:00,SystemResetWarning,0839.6,5.00,000.00,027.1,025.5,000.0,035.7,028.8,17.8,0001.7,0006.64,0014.12,0005.77
2023-10-07 05:54:00,SystemResetWarning,0839.5,5.00,000.00,027.1,025.5,000.0,035.7,028.8,17.8,0001.4,0006.65,0013.64,0005.76
2023-10-07 05:55:00,SystemResetWarning,0839.5,5.00,000.00,027.1,025.5,000.0,035.7,028.7,17.9,0001.1,0006.67,0013.92,0005.76
2023-10-07 05:56:00,SystemResetWarning,0839.5,5.00,000.00,027.1,025.5,000.0,035.6,028.7,17.9,0000.8,0006.65,0014.01,0005.78
2023-10-07 05:57:00,SystemResetWarning,0839.5,5.00,000.00,027.1,025.5,000.0,035.6,028.7,17.9,0000.8,0006.64,0013.49,0005.80
2023-10-07 05:58:00,SystemResetWarning,0839.5,4.99,000.00,027.1,025.4,000.0,035.6,028.7,17.9,0000.2,0006.65,0013.41,0005.81
2023-10-07 05:59:00,SystemResetWarning,0839.5,4.99,000.00,027.1,025.4,000.0,035.6,028.7,17.8,0000.1,0006.66,0013.59,0005.83
